Location: Olsztyn
(53.7767°N, 20.4765°E)
Time: 22:31:40
(UTC+02:00)

Transit 4A - Visible Passes

Search period start: 01 October 2022 00:00
Search period end: 11 October 2022 00:00
Orbit: 869 x 975 km, 66.8° (Epoch: 01 October)

Date Brightness Start Highest point End Pass type
(mag) Time Alt. Az. Time Alt. Az. Time Alt. Az.
01 Oct 9.8 00:14:22 22° NE 00:14:22 22° NE 00:16:19 10° NE visible
01 Oct 9.2 01:57:52 32° NNW 01:57:52 32° NNW 02:02:45 10° NE visible
01 Oct 9.7 03:41:22 12° NW 03:45:30 23° N 03:50:09 10° NE visible
01 Oct 9.3 05:28:09 10° NW 05:33:34 34° NNE 05:38:52 10° E visible
02 Oct 9.7 00:23:21 24° NNE 00:23:21 24° NNE 00:25:34 10° NE visible
02 Oct 9.3 02:06:51 29° NNW 02:06:58 29° NNW 02:12:05 10° NE visible
02 Oct 9.7 03:50:23 10° NW 03:55:11 24° N 03:59:52 10° ENE visible
02 Oct 9.0 05:37:28 10° NW 05:43:04 41° NNE 05:48:34 10° ESE visible
03 Oct 9.7 00:32:20 25° NNE 00:32:20 25° NNE 00:34:50 10° NE visible
03 Oct 9.5 02:15:50 25° NNW 02:16:36 26° NNW 02:21:30 10° NE visible
03 Oct 9.7 03:59:55 10° NW 04:04:49 25° NNE 04:09:38 10° ENE visible
03 Oct 8.7 05:46:44 10° NW 05:52:31 50° NE 05:58:10 10° ESE visible
04 Oct 9.7 00:41:20 26° NNE 00:41:20 26° NNE 00:44:05 10° NE visible
04 Oct 9.6 02:24:50 22° NNW 02:26:13 24° N 02:30:59 10° NE visible
04 Oct 9.6 04:09:23 10° NW 04:14:27 27° NNE 04:19:25 10° ENE visible
04 Oct 8.3 05:56:00 10° NW 06:01:54 63° NE 06:07:40 10° SE visible
04 Oct 10.4 23:06:51 11° NE 23:06:51 11° NE 23:06:58 10° NE visible
05 Oct 9.7 00:50:21 26° NNE 00:50:21 26° NNE 00:53:21 10° NE visible
05 Oct 9.7 02:33:51 20° NNW 02:35:53 23° N 02:40:33 10° NE visible
05 Oct 9.4 04:18:47 10° NW 04:24:02 31° NNE 04:29:11 10° E visible
05 Oct 8.0 06:05:17 10° NW 06:11:13 81° NE 06:17:03 10° SE visible
05 Oct 10.3 23:15:53 12° NE 23:15:53 12° NE 23:16:14 10° NE visible
06 Oct 9.7 00:59:23 26° N 00:59:23 26° N 01:02:41 10° NE visible
06 Oct 9.8 02:42:53 18° NNW 02:45:34 23° N 02:50:12 10° NE visible
06 Oct 9.2 04:28:07 10° NW 04:33:35 36° NNE 04:38:56 10° E visible
06 Oct 10.3 23:24:57 13° NE 23:24:57 13° NE 23:25:29 10° NE visible
07 Oct 9.7 01:08:27 25° N 01:08:27 25° N 01:12:02 10° NE visible
07 Oct 9.7 02:51:57 16° NNW 02:55:14 24° N 02:59:56 10° ENE visible
07 Oct 8.9 04:37:24 10° NW 04:43:03 43° NE 04:48:37 10° ESE visible
07 Oct 10.3 23:34:03 13° NE 23:34:03 13° NE 23:34:44 10° NE visible
08 Oct 9.8 01:17:34 24° N 01:17:34 24° N 01:21:29 10° NE visible
08 Oct 9.7 03:01:04 14° NNW 03:04:52 26° NNE 03:09:43 10° ENE visible
08 Oct 8.5 04:46:40 10° NW 04:52:29 54° NE 04:58:11 10° ESE visible
08 Oct 10.3 23:43:13 14° NE 23:43:13 14° NE 23:43:59 10° NE visible
09 Oct 9.8 01:26:45 24° N 01:26:45 24° N 01:31:00 10° NE visible
09 Oct 9.5 03:10:16 14° NNW 03:14:29 28° NNE 03:19:30 10° E visible
09 Oct 8.1 04:55:56 10° NW 05:01:50 68° NE 05:07:38 10° SE visible
09 Oct 10.3 23:52:29 14° NNE 23:52:29 14° NNE 23:53:17 10° NE visible
10 Oct 9.8 01:36:01 23° N 01:36:01 23° N 01:40:35 10° NE visible
10 Oct 9.3 03:19:33 14° NNW 03:24:03 33° NNE 03:29:17 10° E visible
10 Oct 7.8 05:05:13 10° NW 05:11:09 88° NE 05:16:58 10° SE visible
10 Oct10.922:18:22NE22:18:22NE22:01:40SWvisible
